Regional Weather Roundup
Issued by NWS Boston, MA

Home | Current Version | Previous Version | Text Only | Print | Product List | Glossary On
Versions: 1 2 3 4 5 6 7 8 9 10 11 12 13 14 15 16 17 18 19 20 21 22 23 24 25 26 27 28 29 30 31 32 33 34 35 36 37 38 39 40 41 42 43 44 45 46 47 48 49 50
000
ASUS41 KBOX 151010
RWRBOX

REGIONAL WEATHER ROUNDUP
NATIONAL WEATHER SERVICE TAUNTON MA
600 AM EDT MON SEP 15 2014

NOTE:  "FAIR" INDICATES FEW OR NO CLOUDS BELOW 12,000 FEET WITH NO
SIGNIFICANT WEATHER AND/OR OBSTRUCTIONS TO VISIBILITY.  THE FOLLOWING
OBSERVATION LOCATIONS DO NOT REPORT PRESENT WEATHER...PROVINCETOWN...
SMITHFIELD...BLOCK ISLAND...KEENE...AND OXFORD.

MAZALL-151100-
EASTERN MASSACHUSETTS

CITY           SKY/WX    TMP DP  RH WIND       PRES   REMARKS
BOSTON         PTCLDY    48  41  76 N8        30.23S
BEVERLY        CLEAR     42  39  89 N6        30.23R
LAWRENCE       CLEAR     41  40  96 CALM      30.26R
BEDFORD        CLEAR     38  37  97 SW3       30.23R
BLUE HILL        N/A     44  42  93 N12       30.21R
NORWOOD        PTCLDY    37  36  96 CALM      30.23S FOG
MARSHFIELD     NOT AVBL
PLYMOUTH       MOCLDY    47  43  86 N3        30.23R
TAUNTON        MOCLDY    47  45  93 CALM      30.23R
NEW BEDFORD    PTCLDY    46  44  93 CALM      30.21R
$$

MAZALL-151100-
CAPE COD AND THE ISLANDS

CITY           SKY/WX    TMP DP  RH WIND       PRES   REMARKS
FALMOUTH       CLEAR     52  48  87 N5        30.21S
HYANNIS        CLEAR     46  44  93 CALM      30.20R
CHATHAM        PTCLDY    50  48  93 NW3       30.22R
PROVINCETOWN   PTCLDY    45  43  93 CALM      30.22R
NANTUCKET      MOCLDY    52  47  83 NE5       30.21R
MARTHAS VNYRD  CLOUDY    52  50  93 NE3       30.20R
$$

MAZALL-151100-
CENTRAL AND WESTERN MASSACHUSETTS

CITY           SKY/WX    TMP DP  RH WIND       PRES   REMARKS
WORCESTER      CLOUDY    46  39  76 N8        30.23R
FITCHBURG      CLOUDY    43  40  89 CALM      30.26R
ORANGE         CLOUDY    42  41  96 CALM      30.25R
SPRINGFIELD    CLOUDY    43  43  97 CALM      30.25R
WESTFIELD      CLOUDY    46  43  89 CALM      30.25R
NORTH ADAMS    PTCLDY    40  39  97 CALM      30.25R
PITTSFIELD     CLOUDY    43  42  97 CALM      30.23R
$$

RIZALL-151100-
RHODE ISLAND

CITY           SKY/WX    TMP DP  RH WIND       PRES   REMARKS
PROVIDENCE     MOCLDY    49  43  80 N7        30.23S
NEWPORT        CLEAR     50  44  80 N8        30.22R
BLOCK ISLAND   CLEAR     54  48  82 N5        30.21R
SMITHFIELD     CLEAR     45  36  70 N7        30.22R
WESTERLY       CLEAR     47  44  90 N5        30.23R
$$

CTZALL-151100-
CONNECTICUT

CITY           SKY/WX    TMP DP  RH WIND       PRES   REMARKS
BRADLEY INTL   MOCLDY    46  42  86 N5        30.25R
HARTFORD       CLEAR     46  42  86 VRB5      30.25R
BRIDGEPORT     CLEAR     50  44  80 N7        30.23R
DANBURY        CLEAR     40  39  97 CALM      30.26R
GROTON         PTCLDY    47  44  90 N12       30.22R
NEW HAVEN      PTCLDY    50  43  77 N9        30.23R
CHESTER        FAIR      46  45  93 N7        30.24R
MERIDEN        CLEAR     47  43  86 N5        30.25R
WILLIMANTIC    MOCLDY    44  42  93 CALM      30.24R
$$

MEZ002-015-021-024-NHZ003-005-008-011-012-014-VTZ005-008-151100-
NORTHERN NEW ENGLAND

CITY           SKY/WX    TMP DP  RH WIND       PRES   REMARKS
PORTLAND ME    PTCLDY    44  40  85 CALM      30.25R
BANGOR ME      CLOUDY    38  35  89 CALM      30.22R
CONCORD NH     CLOUDY    40  39  97 CALM      30.25S
MANCHESTER NH  MOCLDY    44  39  82 CALM      30.23S
NASHUA NH      PTCLDY    40  38  93 CALM      30.25S
PORTSMOUTH NH  MOCLDY    47  42  83 NW3       30.23S
JAFFREY NH     CLOUDY    40  39  97 CALM      30.25R
KEENE NH       CLOUDY    41  32  70 CALM      30.26S
BURLINGTON VT  CLEAR     37  35  92 E3        30.25R
MT. WASHINGTON PTCLDY    27  14  59 NW29        N/A  WCI  11
$$

NYZ052-076-151100-
EASTERN NEW YORK

CITY           SKY/WX    TMP DP  RH WIND       PRES   REMARKS
ALBANY         PTCLDY    42  40  92 CALM      30.26R
NEW YORK CITY  PTCLDY    55  44  66 NE9       30.23R
$$

ANZALL-151100-
MARINE OBSERVATIONS

STATION/POSITION TIME  TEMP    WIND        PRES    VSBY  WAVE
                       AIR SEA DIR/SP/G                  HT/PER
                 (UTC) (F)     (DEG/KT/KT) (MB)    (MI)  (FT/S)
BOSTON BUOY      0950   53 62  340/ 14/ 17 1023.1R         2/ 7
BUZZARDS BAY     0900           10/ 14/ 15 1023.1R
NANTUCKET SOUND  0950   60 68   80/  4/  6 1022.6R         1/ 6
MASS BAY-STELLWA 0904   58 60   20/ 10/ 12   N/A    1 7/8  3/ 5
ISLE OF SHOALS   1000   50     360/ 12/ 13 1023.3R
S OF BLOCK IS    0908      65                N/A           1/ 7
$$

......................KEY.........................
  SKY/WX - SKY CONDITION/PRESENT WEATHER
  TMP    - TEMPERATURE IN FAHRENHEIT
  DWPT   - DEWPOINT IN FAHRENHEIT
  RH     - RELATIVE HUMIDITY IN PERCENT
  WIND   - DIRECTION AND SPEED IN MPH
  PRES   - MEAN SEA LEVEL PRESSURE IN INCHES OF HG
  WCI    - WIND CHILL INDEX
  VSB    - VISIBILITY IN MILES
  HX     - HEAT INDEX
  TC     - TEMPERATURE IN CELSIUS
  VRB    - VARIABLE WIND DIRECTION
  N/A    - NOT AVAILABLE


USA.gov is the U.S. government's official web portal to all federal, state and local government web resources and services.